TimeCDT,TemperatureF,Dew PointF,Humidity,Sea Level PressureIn,VisibilityMPH,Wind Direction,Wind SpeedMPH,Gust SpeedMPH,PrecipitationIn,Events,Conditions,WindDirDegrees,DateUTC
12:13 AM,53.6,51.8,94,30.13,10.0,Calm,Calm,-,N/A,,Clear,0,2013-08-17 05:13:00
12:33 AM,53.6,51.8,94,30.13,10.0,Calm,Calm,-,N/A,,Clear,0,2013-08-17 05:33:00
12:53 AM,53.6,50.0,88,30.13,10.0,Calm,Calm,-,N/A,,Clear,0,2013-08-17 05:53:00
1:13 AM,51.8,48.2,88,30.13,10.0,Calm,Calm,-,N/A,,Clear,0,2013-08-17 06:13:00
1:33 AM,53.6,50.0,88,30.14,10.0,Calm,Calm,-,N/A,,Clear,0,2013-08-17 06:33:00
1:53 AM,53.6,48.2,82,30.14,10.0,Calm,Calm,-,N/A,,Clear,0,2013-08-17 06:53:00
2:13 AM,51.8,48.2,88,30.14,10.0,Calm,Calm,-,N/A,,Clear,0,2013-08-17 07:13:00
2:33 AM,51.8,46.4,82,30.14,10.0,Calm,Calm,-,N/A,,Clear,0,2013-08-17 07:33:00
2:53 AM,50.0,46.4,87,30.14,10.0,Calm,Calm,-,N/A,,Clear,0,2013-08-17 07:53:00
3:13 AM,51.8,46.4,82,30.14,10.0,Calm,Calm,-,N/A,,Clear,0,2013-08-17 08:13:00
3:33 AM,48.2,44.6,87,30.14,10.0,Calm,Calm,-,N/A,,Clear,0,2013-08-17 08:33:00
3:53 AM,51.8,46.4,82,30.14,10.0,Calm,Calm,-,N/A,,Clear,0,2013-08-17 08:53:00
4:13 AM,50.0,46.4,87,30.14,10.0,Calm,Calm,-,N/A,,Clear,0,2013-08-17 09:13:00
4:33 AM,50.0,44.6,82,30.15,10.0,Calm,Calm,-,N/A,,Clear,0,2013-08-17 09:33:00
4:53 AM,48.2,44.6,87,30.14,10.0,Calm,Calm,-,N/A,,Clear,0,2013-08-17 09:53:00
5:13 AM,48.2,46.4,93,30.14,7.0,Calm,Calm,-,N/A,,Clear,0,2013-08-17 10:13:00
5:33 AM,48.2,44.6,87,30.15,7.0,Calm,Calm,-,N/A,,Clear,0,2013-08-17 10:33:00
5:53 AM,46.4,44.6,93,30.15,7.0,Calm,Calm,-,N/A,,Clear,0,2013-08-17 10:53:00
6:13 AM,48.2,44.6,87,30.15,5.0,Calm,Calm,-,N/A,,Clear,0,2013-08-17 11:13:00
6:33 AM,46.4,44.6,93,30.15,1.8,Calm,Calm,-,N/A,,Mist,0,2013-08-17 11:33:00
6:53 AM,48.2,44.6,87,30.15,10.0,Calm,Calm,-,N/A,,Clear,0,2013-08-17 11:53:00
7:13 AM,48.2,44.6,87,30.15,10.0,Calm,Calm,-,N/A,,Clear,0,2013-08-17 12:13:00
7:33 AM,51.8,48.2,88,30.15,10.0,Calm,Calm,-,N/A,,Clear,0,2013-08-17 12:33:00
7:53 AM,55.4,51.8,88,30.15,10.0,Calm,Calm,-,N/A,,Clear,0,2013-08-17 12:53:00
8:13 AM,62.6,53.6,72,30.15,10.0,Calm,Calm,-,N/A,,Clear,0,2013-08-17 13:13:00
8:33 AM,64.4,53.6,68,30.15,10.0,Calm,Calm,-,N/A,,Clear,0,2013-08-17 13:33:00
8:53 AM,68.0,53.6,60,30.15,10.0,SW,3.5,-,N/A,,Clear,220,2013-08-17 13:53:00
9:14 AM,69.8,51.8,53,30.15,10.0,SW,5.8,-,N/A,,Clear,230,2013-08-17 14:14:00
9:33 AM,69.8,50.0,49,30.15,10.0,WSW,3.5,-,N/A,,Clear,240,2013-08-17 14:33:00
9:53 AM,71.6,50.0,46,30.15,10.0,SW,12.7,18.4,N/A,,Clear,220,2013-08-17 14:53:00
10:13 AM,71.6,50.0,46,30.14,10.0,SW,6.9,-,N/A,,Clear,230,2013-08-17 15:13:00
10:33 AM,71.6,48.2,43,30.14,10.0,SW,11.5,19.6,N/A,,Clear,220,2013-08-17 15:33:00
10:53 AM,73.4,50.0,44,30.15,10.0,SW,8.1,17.3,N/A,,Clear,230,2013-08-17 15:53:00
11:13 AM,73.4,50.0,44,30.14,10.0,SW,9.2,21.9,N/A,,Clear,230,2013-08-17 16:13:00
11:33 AM,73.4,50.0,44,30.14,10.0,SW,10.4,-,N/A,,Clear,220,2013-08-17 16:33:00
11:53 AM,73.4,51.8,47,30.13,10.0,SSW,5.8,17.3,N/A,,Clear,200,2013-08-17 16:53:00
12:13 PM,73.4,51.8,47,30.13,10.0,SSW,9.2,17.3,N/A,,Clear,210,2013-08-17 17:13:00
12:33 PM,73.4,50.0,44,30.12,10.0,SW,4.6,16.1,N/A,,Clear,220,2013-08-17 17:33:00
12:53 PM,75.2,50.0,41,30.12,10.0,SW,12.7,19.6,N/A,,Clear,220,2013-08-17 17:53:00
1:13 PM,75.2,48.2,38,30.11,10.0,SSW,12.7,19.6,N/A,,Clear,210,2013-08-17 18:13:00
1:33 PM,75.2,50.0,41,30.10,10.0,SSW,12.7,20.7,N/A,,Clear,210,2013-08-17 18:33:00
1:53 PM,75.2,48.2,38,30.10,10.0,SSW,13.8,23.0,N/A,,Clear,200,2013-08-17 18:53:00
2:13 PM,75.2,46.4,36,30.10,10.0,SSW,16.1,24.2,N/A,,Clear,200,2013-08-17 19:13:00
2:33 PM,75.2,46.4,36,30.10,10.0,SSW,15.0,24.2,N/A,,Clear,200,2013-08-17 19:33:00
2:53 PM,75.2,46.4,36,30.09,10.0,SSW,16.1,23.0,N/A,,Clear,200,2013-08-17 19:53:00
3:13 PM,75.2,46.4,36,30.08,10.0,SSW,16.1,23.0,N/A,,Clear,200,2013-08-17 20:13:00
3:33 PM,75.2,46.4,36,30.07,10.0,SSW,16.1,25.3,N/A,,Clear,200,2013-08-17 20:33:00
3:53 PM,75.2,44.6,34,30.07,10.0,SW,19.6,25.3,N/A,,Clear,220,2013-08-17 20:53:00
4:13 PM,77.0,46.4,34,30.07,10.0,SSW,13.8,23.0,N/A,,Clear,200,2013-08-17 21:13:00
4:33 PM,77.0,44.6,32,30.07,10.0,SSW,17.3,25.3,N/A,,Clear,210,2013-08-17 21:33:00
4:53 PM,77.0,44.6,32,30.06,10.0,SSW,18.4,26.5,N/A,,Clear,210,2013-08-17 21:53:00
5:13 PM,77.0,44.6,32,30.05,10.0,SSW,17.3,26.5,N/A,,Clear,210,2013-08-17 22:13:00
5:33 PM,75.2,44.6,34,30.05,10.0,SSW,12.7,21.9,N/A,,Clear,210,2013-08-17 22:33:00
5:53 PM,75.2,44.6,34,30.06,10.0,SSW,15.0,20.7,N/A,,Clear,210,2013-08-17 22:53:00
6:14 PM,75.2,46.4,36,30.06,10.0,SW,9.2,-,N/A,,Clear,220,2013-08-17 23:14:00
6:33 PM,75.2,46.4,36,30.05,10.0,SSW,10.4,-,N/A,,Clear,210,2013-08-17 23:33:00
6:53 PM,73.4,46.4,38,30.06,10.0,SSW,8.1,16.1,N/A,,Clear,210,2013-08-17 23:53:00
7:13 PM,73.4,46.4,38,30.05,10.0,SW,3.5,-,N/A,,Clear,220,2013-08-18 00:13:00
7:33 PM,71.6,48.2,43,30.06,10.0,Calm,Calm,-,N/A,,Clear,0,2013-08-18 00:33:00
7:53 PM,68.0,48.2,49,30.05,10.0,Calm,Calm,-,N/A,,Clear,0,2013-08-18 00:53:00
8:13 PM,66.2,48.2,52,30.06,10.0,Calm,Calm,-,N/A,,Clear,0,2013-08-18 01:13:00
8:33 PM,64.4,50.0,59,30.06,10.0,Calm,Calm,-,N/A,,Clear,0,2013-08-18 01:33:00
8:53 PM,64.4,50.0,59,30.06,10.0,Calm,Calm,-,N/A,,Clear,0,2013-08-18 01:53:00
9:13 PM,64.4,48.2,56,30.06,10.0,Calm,Calm,-,N/A,,Clear,0,2013-08-18 02:13:00
9:33 PM,62.6,50.0,63,30.07,10.0,Calm,Calm,-,N/A,,Clear,0,2013-08-18 02:33:00
9:53 PM,62.6,50.0,63,30.07,10.0,Calm,Calm,-,N/A,,Clear,0,2013-08-18 02:53:00
10:13 PM,60.8,50.0,68,30.06,10.0,Calm,Calm,-,N/A,,Clear,0,2013-08-18 03:13:00
10:33 PM,60.8,50.0,68,30.06,10.0,Calm,Calm,-,N/A,,Clear,0,2013-08-18 03:33:00
10:54 PM,57.2,50.0,77,30.06,10.0,Calm,Calm,-,N/A,,Clear,0,2013-08-18 03:54:00
11:13 PM,57.2,51.8,82,30.06,10.0,Calm,Calm,-,N/A,,Clear,0,2013-08-18 04:13:00
11:33 PM,57.2,51.8,82,30.06,10.0,Calm,Calm,-,N/A,,Clear,0,2013-08-18 04:33:00
11:53 PM,55.4,51.8,88,30.06,10.0,Calm,Calm,-,N/A,,Clear,0,2013-08-18 04:53:00